This demonstration page uses our WeatherBlox Daily Observations layout. Learn more.

Left ArrowRight Arrow

44.89941, -97.11507

Hourly Observations for March 31, 2017

Temp ( °F °C ) Dew Point ( °F °C ) Humidity (%) Winds ( mph kmh ) Pressure ( in mb ) Visibility ( mi km ) Precip ( " mm )
12:53 am 00:53 Clear 34 1.1 32 0 92 92 N 6 9 29.94 1014 10 16 0.00 0.00
1:53 am 01:53 Clear 31 -0.6 30 -1.1 96 96 N 6 9 29.96 1014 10 16 0.00 0.00
2:53 am 02:53 Clear 30 -1.1 28 -2.2 92 92 N 6 9 29.96 1015 10 16 0.00 0.00
3:53 am 03:53 Clear 30 -1.1 28 -2.2 92 92 NNW 5 7 29.97 1015 10 16 0.00 0.00
4:53 am 04:53 Clear 31 -0.6 29 -1.7 92 92 NNW 5 7 29.98 1015 10 16 0.00 0.00
5:53 am 05:53 Clear 31 -0.6 29 -1.7 92 92 N 3 6 30.01 1016 10 16 0.00 0.00
6:53 am 06:53 Clear 30 -1.1 28 -2.2 92 92 N 3 6 30.02 1017 10 16 0.00 0.00
7:53 am 07:53 Sunny 30 -1.1 28 -2.2 92 92 N 5 7 30.04 1017 10 16 0.00 0.00
8:53 am 08:53 Sunny 38 3.3 34 1.1 86 86 NNE 7 11 30.05 1018 10 16 0.00 0.00
9:53 am 09:53 Sunny 45 7.2 37 2.8 74 74 NE 10 17 30.05 1018 10 16 0.00 0.00
10:53 am 10:53 Sunny 49 9.4 35 1.7 59 59 NNE 12 19 30.07 1018 10 16 0.00 0.00
11:53 am 11:53 Sunny 52 11.1 28 -2.2 40 40 NE 17 28 30.08 1019 10 16 0.00 0.00
12:53 pm 12:53 Sunny 53 11.7 27 -2.8 37 37 ENE 14 22 30.09 1019 10 16 0.00 0.00
1:53 pm 13:53 Sunny 55 12.8 26 -3.3 33 33 ENE 14 22 30.09 1019 10 16 0.00 0.00
2:53 pm 14:53 Sunny 55 12.8 24 -4.4 30 30 NNE 14 22 30.08 1019 10 16 0.00 0.00
3:53 pm 15:53 Sunny 57 13.9 22 -5.6 26 26 NE 13 20 30.07 1018 10 16 0.00 0.00
4:53 pm 16:53 Sunny 56 13.3 22 -5.6 27 27 NNE 14 22 30.08 1019 10 16 0.00 0.00
5:53 pm 17:53 Sunny 54 12.2 25 -3.9 33 33 NE 10 17 30.09 1019 10 16 0.00 0.00
6:53 pm 18:53 Sunny 51 10.6 26 -3.3 38 38 NE 9 15 30.09 1019 10 16 0.00 0.00
7:53 pm 19:53 Sunny 46 7.8 27 -2.8 47 47 NE 6 9 30.12 1020 10 16 0.00 0.00
8:53 pm 20:53 Clear 44 6.7 27 -2.8 51 51 N 5 7 30.14 1021 10 16 0.00 0.00
9:53 pm 21:53 Clear 37 2.8 28 -2.2 70 70 NNW 7 11 30.17 1022 10 16 0.00 0.00
10:53 pm 22:53 Clear 38 3.3 29 -1.7 70 70 N 5 7 30.17 1022 10 16 0.00 0.00
11:53 pm 23:53 Clear 39 3.9 29 -1.7 67 67 Calm 30.17 1022 10 16 0.00 0.00

Powered by AerisWeather